Showing default

YAOGAN-30 U, 46807

Orbit data source: Space-Track

YAOGAN-30 U, 46807 is a payload satellite owned by PLA SSF (CN) in LEO that was launched on Mon, 26 Oct 2020 UTC via a CHANG ZHENG 2C launch vehicle from the Xichang Space Center, China (XSC). Payload-class satellites include a variety of spacecraft equipped with specific instruments for various scientific and technological missions. These include communications satellites like Starlink; space stations such as the ISS; scientific satellites like the Hubble; Earth observation satellites from companies like Planet Labs, Umbra, and HawkEye 360; GPS; miniature CubeSats for education and research; and military/defense satellites.

Loading next visibility...
Identifier
46807, 2020-076A
Orbit
LEO
Country
Flag of CNCN / PRC
Related business
Manufacturer
SECM
Mission
Operational Defense Sigint
Bus & Motor
Unknown
Mass
~500 kg wet, ~500 kg dry
Launch date (UTC)
2020-10-26 (6 years ago)
Launch vehicle
CHANG ZHENG 2C
Launch site
Xichang Space Center, China (XSC)
Object type
Payload
Rocket body
Debris
Shape & HBR
Box + 2 Pan, 0.5 m
Radar Cross Section
0.446 m², Large (>1 m²)

Expand to show TLE details & history
Last TLE update: 1 day ago

TLE from 1 day ago
0 YAOGAN-30 U
1 46807U 20076A   26172.16696896  .00001965  00000-0  14639-3 0  9996
2 46807  34.9946  66.9726 0000823 280.8745  79.1870 15.02710189308710
Epoch: 2026-06-21T04:00Z
TLE epoch observation values (Epoch: 2026-06-21T04:00:26.118Z)
Latitude
-0.00004°
Longitude
97.49259°
Altitude
557.353 km
Speed
7.585 km/s
True Right ascension
04h 27m 53s
True Declination
0° 00' 00"
Sunlit
Object was in daylight at epoch
Visualization orbit readout
Latitude
Unknown
Longitude
Unknown
Altitude
Unknown
Speed
Unknown
Apparent Right ascension
Unknown
Apparent Declination
Unknown
Sunlit
N/A
Visualization observer readout
Local Sidereal Time
21:38:18
Azimuth
Unknown
Elevation
Unknown
Doppler factor
Unknown
Orbital elements
Apogee altitude
562.337 km
Perigee altitude
561.194 km
Semi-major axis
6,939.903 km
Eccentricity
0.00008
Inclination
34.9946°
RAAN
66.9726°
Arg. of periapsis
280.8745°
True anomaly
79.19626°
Mean anomaly
79.187°
Eccentric anomaly
79.19163°
Mean motion
3.75416 °/min
Orbital period
95.89 mins
BSTAR
0.00014639
Loading maneuver chart data...
Computing Atmospheric mass density...
Loading historical data...
Loading historical data...
Loading historical data...
Loading historical data...
Loading historical data...
Loading historical data...
Loading historical data...
Other satellites on launch #76 in the year 2020 (2020-10-26 UTC)

Documentation

Showing up to 5 results
|